User: anonymous   Login
Location: French Creek State Gamelands
(40.1750°N, 75.7969°W)
Time: 15:17:47
(UTC-05:00)
Language:

ISS - Orbit

View from above orbital plane
View from above orbital plane
View from above satellite
View from above satellite

Ground track
Ground track

The orbit data is extracted from the following two-line orbital elements,

1 25544U 98067A   15062.52611802  .00015527  00000-0  23360-3 0  9996
2 25544 051.6446 251.7683 0007944 065.5833 342.7724 15.55001419931591
Epoch (UTC): 03 March 2015 12:37:36
Eccentricity: 0.0007944
inclination: 51.6446°
perigee height: 397 km
apogee height: 407 km
right ascension of ascending node: 251.7683°
argument of perigee: 65.5833°
revolutions per day: 15.55001419
mean anomaly at epoch: 342.7724°
orbit number at epoch: 93159

The dashed part of the orbit path shows where the satellite is in the earth's shadow,  

DLR